Location: Gollag?dem
(16.8053°N, 80.8024°E)
Time: 17:33:57
(UTC+00:00)

Cosmos 407 Rocket - Pass Details

Date: 13 August 2020
Orbit: 744 x 786 km, 74.0° (Epoch: 18 September)

Event Time Altitude Azimuth Distance (km) Brightness Sun altitude
Rises 13:40:41 0° 190° (S) 3,262 6.7 -9.5°
Reaches altitude 10° 13:43:04 10° 189° (S) 2,335 5.9 -10.0°
Maximum altitude 13:48:23 79° 103° (ESE) 798 3.5 -11.2°
Drops below altitude 10° 13:53:40 10° 17° (NNE) 2,326 6.0 -12.4°
Sets 13:56:03 0° 16° (NNE) 3,249 6.8 -12.9°
